Flag for United Kingdom Weather past 2 weeks in Newport, Wales, United Kingdom

Now
36 °F

Passing clouds.


Feels Like: 26 °F
Forecast: 36 / 42 °F
Wind: 16 mph from West

Location: Bristol / Lulsgate

Current Time: Jan 31, 2015 at 4:43:15 AM

Latest Report: Jan 31, 2015 at 4:20 AM


Visibility: N/A

Pressure: 28.97 "Hg

Humidity: 87%

Dew point: 32 °F

Location of NewportLocation

Historic Weather in Newport — Graph

°F

Newport temperature yesterday

Maximum temperature yesterday: 43 °F (at 12:20 PM)
Minimum temperature yesterday: 34 °F (at 10:20 PM)
Average temperature yesterday: 38 °F

Past Weeks' High & Low Weather Summary

 TemperatureHumidityPressure
High48 °F (Jan 26, 6:50 AM)100% (Jan 17, 8:50 AM)30.48 "Hg (Jan 17, 8:50 AM)
Low28 °F (Jan 20, 6:50 AM)56% (Jan 19, 1:50 PM)28.77 "Hg (Jan 30, 4:20 AM)
Average38 °F86%29.87 "Hg
* Reported Jan 16 3:20 AM — Jan 31 3:20 AM, Newport, Weather by CustomWeather, © 2014

Note: Actual official high and low records may vary slightly from our data, if they occured in-between our weather recording intervals... More about our weather records

Advertising

Newport weather history for previous 24 hours

 ConditionsComfort  
Time TempWeatherWind HumidityBarometerVisibility
3:20 AM
Jan 31
36 °FPassing clouds.18 mph87%29.00 "HgN/A
2:50 AM36 °FPartly cloudy.17 mph87%29.00 "HgN/A
2:20 AM34 °FPassing clouds.15 mph93%29.00 "HgN/A
1:50 AM34 °FPartly cloudy.16 mph93%29.00 "HgN/A
1:20 AM34 °FPassing clouds.14 mph87%29.00 "HgN/A
12:50 AM34 °FPassing clouds.14 mph87%29.00 "HgN/A
12:20 AM34 °FClear.14 mph87%28.97 "Hg10 mi
11:50 PM
Jan 30
34 °FClear.14 mph87%28.97 "Hg10 mi
11:20 PM34 °FClear.13 mph87%28.97 "Hg10 mi
10:50 PM34 °FClear.16 mph87%28.97 "Hg10 mi
10:20 PM34 °FClear.9 mph87%29.00 "Hg10 mi
9:20 PM36 °FClear.13 mph87%29.00 "Hg10 mi
8:50 PM36 °FClear.13 mph87%28.97 "Hg10 mi
8:20 PM36 °FClear.14 mph87%28.97 "Hg10 mi
7:50 PM36 °FPassing clouds.13 mph87%28.97 "HgN/A
7:20 PM36 °FPassing clouds.14 mph93%28.97 "HgN/A
6:50 PM36 °FPassing clouds.12 mph87%28.97 "HgN/A
6:20 PM36 °FPassing clouds.12 mph87%28.97 "HgN/A
5:50 PM36 °FPassing clouds.7 mph87%28.97 "HgN/A
5:20 PM37 °FPassing clouds.8 mph87%28.97 "HgN/A
4:50 PM39 °FScattered clouds.10 mph81%28.97 "HgN/A
4:20 PM39 °FScattered clouds.13 mph81%28.97 "HgN/A
3:50 PM41 °FScattered showers. Scattered clouds.14 mph76%28.97 "HgN/A
3:20 PM43 °FScattered clouds.14 mph71%28.97 "HgN/A
2:50 PM43 °FScattered clouds.12 mph76%28.97 "HgN/A
2:20 PM43 °FPartly sunny.14 mph76%28.97 "HgN/A
1:50 PM43 °FPartly sunny.14 mph76%28.97 "HgN/A
1:20 PM43 °FScattered clouds.16 mph81%28.97 "HgN/A
12:50 PM43 °FScattered clouds.15 mph81%29.00 "HgN/A
12:20 PM43 °FScattered clouds.16 mph81%29.00 "HgN/A
11:50 AM41 °FScattered clouds.17 mph87%29.00 "HgN/A
11:20 AM41 °FPassing clouds.16 mph81%29.00 "HgN/A
10:50 AM41 °FPassing clouds.18 mph76%29.00 "HgN/A
10:20 AM39 °FPassing clouds.18 mph81%29.00 "HgN/A
9:50 AM37 °FPassing clouds.13 mph81%29.00 "HgN/A
9:20 AM37 °FPassing clouds.10 mph75%29.00 "HgN/A
8:50 AM36 °FPassing clouds.13 mph81%29.00 "HgN/A
8:20 AM36 °FPassing clouds.10 mph81%29.00 "HgN/A
7:50 AM36 °FPassing clouds.14 mph81%29.00 "HgN/A
7:20 AM37 °FPassing clouds.14 mph75%28.94 "HgN/A
6:50 AM37 °FPassing clouds.16 mph81%28.91 "HgN/A
6:20 AM37 °FPassing clouds.17 mph81%28.88 "HgN/A
5:50 AM37 °FPassing clouds.20 mph87%28.85 "HgN/A
5:20 AM37 °FPassing clouds.20 mph87%28.82 "HgN/A
4:50 AM37 °FPassing clouds.23 mph93%28.80 "HgN/A
4:20 AM37 °FPassing clouds.26 mph87%28.77 "HgN/A
Weather by CustomWeather, © 2014

See weather overviewHow to use our weather pages